• In Deutschland
  • Länderverzeichnis
  • Für 7 Tage
  • Wassertemperatur
  • Satellitenkarten
  • Wetterkarte
  • Widgets
  • user-avatar
    Anmelden

    Stündliche Wetter Cottbus

    Heute, 17 Oktober, Dienstag

    Zeit Temperatur Niederschläge Wind Luftdruck Luftfeuchtigkeit
    00:00 +16°C° 0 mm 2 m/S 761 mmHg 80%
    01:00 +16°C° 0 mm 2 m/S 761 mmHg 77%
    02:00 +15°C° 0 mm 2 m/S 760 mmHg 77%
    03:00 +15°C° 0 mm 2 m/S 760 mmHg 76%
    04:00 +15°C° 0 mm 2 m/S 760 mmHg 75%
    05:00 +15°C° 0 mm 2 m/S 760 mmHg 75%
    06:00 +15°C° 0 mm 2 m/S 760 mmHg 76%
    07:00 +14°C° 0 mm 2 m/S 760 mmHg 78%
    08:00 +16°C° 0 mm 2 m/S 760 mmHg 72%
    09:00 +18°C° 0 mm 3 m/S 760 mmHg 66%
    10:00 +20°C° 0 mm 3 m/S 760 mmHg 60%
    11:00 +21°C° 0 mm 3 m/S 760 mmHg 57%
    12:00 +22°C° 0 mm 3 m/S 760 mmHg 54%
    13:00 +24°C° 0 mm 3 m/S 760 mmHg 51%
    14:00 +24°C° 0 mm 2 m/S 759 mmHg 55%
    15:00 +23°C° 0 mm 2 m/S 759 mmHg 59%
    16:00 +23°C° 0 mm 2 m/S 758 mmHg 63%
    17:00 +20°C° 0 mm 2 m/S 758 mmHg 68%
    18:00 +18°C° 0 mm 2 m/S 758 mmHg 72%
    19:00 +17°C° 0 mm 2 m/S 758 mmHg 77%
    20:00 +16°C° 0 mm 2 m/S 758 mmHg 77%
    21:00 +16°C° 0 mm 2 m/S 758 mmHg 78%
    22:00 +15°C° 0 mm 2 m/S 758 mmHg 79%
    23:00 +15°C° 0 mm 1 m/S 758 mmHg 80%

    Morgen, 18 Oktober, Mittwoch

    Zeit Temperatur Niederschläge Wind Luftdruck Luftfeuchtigkeit
    00:00 +15°C° 0 mm 1 m/S 758 mmHg 81%
    01:00 +14°C° 0 mm 1 m/S 758 mmHg 82%
    02:00 +14°C° 0 mm 1 m/S 757 mmHg 84%
    03:00 +14°C° 0 mm 1 m/S 757 mmHg 85%
    04:00 +13°C° 0 mm 1 m/S 756 mmHg 86%
    05:00 +13°C° 0 mm 1 m/S 756 mmHg 87%
    06:00 +13°C° 0 mm 1 m/S 756 mmHg 87%
    07:00 +13°C° 0 mm 1 m/S 756 mmHg 88%
    08:00 +15°C° 0 mm 1 m/S 756 mmHg 80%
    09:00 +16°C° 0 mm 1 m/S 756 mmHg 73%
    10:00 +19°C° 0 mm 1 m/S 756 mmHg 65%
    11:00 +18°C° 0 mm 0 m/S 756 mmHg 62%
    12:00 +19°C° 0 mm 0 m/S 755 mmHg 58%
    13:00 +21°C° 0 mm 0 m/S 755 mmHg 55%
    14:00 +20°C° 0 mm 0 m/S 755 mmHg 58%
    15:00 +19°C° 0 mm 0 m/S 754 mmHg 62%
    16:00 +18°C° 0 mm 0 m/S 754 mmHg 65%
    17:00 +17°C° 0 mm 0 m/S 754 mmHg 69%
    18:00 +18°C° 0 mm 1 m/S 754 mmHg 72%
    19:00 +16°C° 0 mm 1 m/S 754 mmHg 76%
    20:00 +15°C° 0 mm 1 m/S 754 mmHg 78%
    21:00 +15°C° 0 mm 1 m/S 754 mmHg 80%
    22:00 +14°C° 0 mm 1 m/S 754 mmHg 82%
    23:00 +14°C° 0 mm 1 m/S 754 mmHg 84%

    übermorgen, 19 Oktober, Donnerstag

    Zeit Temperatur Niederschläge Wind Luftdruck Luftfeuchtigkeit
    00:00 +14°C° 0 mm 1 m/S 754 mmHg 85%
    01:00 +13°C° 0 mm 1 m/S 754 mmHg 87%
    02:00 +13°C° 0 mm 1 m/S 754 mmHg 88%
    03:00 +12°C° 0 mm 1 m/S 754 mmHg 90%
    04:00 +12°C° 0 mm 1 m/S 754 mmHg 91%
    05:00 +12°C° 0 mm 1 m/S 754 mmHg 92%
    06:00 +12°C° 0 mm 1 m/S 754 mmHg 92%
    07:00 +11°C° 0 mm 1 m/S 754 mmHg 93%
    08:00 +13°C° 0 mm 1 m/S 755 mmHg 85%
    09:00 +15°C° 0 mm 1 m/S 755 mmHg 77%
    10:00 +18°C° 0 mm 1 m/S 755 mmHg 69%
    11:00 +19°C° 0 mm 1 m/S 755 mmHg 64%
    12:00 +20°C° 0 mm 1 m/S 755 mmHg 60%
    13:00 +21°C° 0 mm 1 m/S 755 mmHg 55%
    14:00 +21°C° 0 mm 1 m/S 754 mmHg 58%
    15:00 +20°C° 0 mm 1 m/S 754 mmHg 61%
    16:00 +18°C° 0 mm 0 m/S 754 mmHg 64%
    17:00 +19°C° 0 mm 1 m/S 754 mmHg 67%
    18:00 +16°C° 0 mm 1 m/S 755 mmHg 71%
    19:00 +15°C° 0 mm 1 m/S 755 mmHg 75%
    20:00 +15°C° 0 mm 1 m/S 755 mmHg 76%
    21:00 +14°C° 0 mm 2 m/S 755 mmHg 77%
    22:00 +14°C° 0 mm 2 m/S 755 mmHg 78%
    23:00 +14°C° 0 mm 2 m/S 755 mmHg 78%

    20 Oktober, Freitag

    Zeit Temperatur Niederschläge Wind Luftdruck Luftfeuchtigkeit
    00:00 +14°C° 0 mm 2 m/S 755 mmHg 78%
    01:00 +14°C° 0 mm 2 m/S 755 mmHg 77%
    02:00 +14°C° 0 mm 2 m/S 755 mmHg 76%
    03:00 +14°C° 0 mm 2 m/S 755 mmHg 75%
    04:00 +14°C° 0 mm 2 m/S 755 mmHg 74%
    05:00 +14°C° 0 mm 2 m/S 755 mmHg 74%
    06:00 +13°C° 0 mm 2 m/S 755 mmHg 74%
    07:00 +13°C° 0 mm 2 m/S 756 mmHg 74%
    08:00 +15°C° 0 mm 2 m/S 756 mmHg 70%
    09:00 +16°C° 0 mm 2 m/S 756 mmHg 65%
    10:00 +18°C° 0 mm 2 m/S 756 mmHg 60%
    11:00 +19°C° 0 mm 3 m/S 756 mmHg 57%
    12:00 +20°C° 0 mm 3 m/S 756 mmHg 53%
    13:00 +21°C° 0 mm 3 m/S 755 mmHg 50%
    14:00 +20°C° 0 mm 3 m/S 755 mmHg 53%
    15:00 +20°C° 0 mm 2 m/S 755 mmHg 56%
    16:00 +19°C° 0 mm 2 m/S 755 mmHg 59%
    17:00 +18°C° 0 mm 2 m/S 755 mmHg 62%
    18:00 +17°C° 0 mm 3 m/S 755 mmHg 64%
    19:00 +16°C° 0 mm 3 m/S 756 mmHg 66%
    20:00 +14°C° 0 mm 3 m/S 756 mmHg 69%
    21:00 +14°C° 0 mm 3 m/S 756 mmHg 71%
    22:00 +14°C° 0 mm 3 m/S 756 mmHg 74%
    23:00 +15°C° 0 mm 2 m/S 756 mmHg 76%

    21 Oktober, Samstag

    Zeit Temperatur Niederschläge Wind Luftdruck Luftfeuchtigkeit
    00:00 +15°C° 0 mm 2 m/S 756 mmHg 78%
    01:00 +14°C° 0 mm 2 m/S 756 mmHg 80%
    02:00 +14°C° 0 mm 2 m/S 755 mmHg 81%
    03:00 +14°C° 0 mm 2 m/S 755 mmHg 81%
    04:00 +14°C° 0 mm 2 m/S 755 mmHg 82%
    05:00 +14°C° 0 mm 2 m/S 755 mmHg 81%
    06:00 +14°C° 0 mm 2 m/S 755 mmHg 81%
    07:00 +14°C° 0 mm 2 m/S 755 mmHg 80%
    08:00 +15°C° 0 mm 2 m/S 755 mmHg 77%
    09:00 +16°C° 0 mm 2 m/S 755 mmHg 73%
    10:00 +17°C° 0 mm 3 m/S 755 mmHg 70%
    11:00 +18°C° 0 mm 3 m/S 755 mmHg 66%
    12:00 +20°C° 0 mm 3 m/S 754 mmHg 61%
    13:00 +21°C° 0 mm 3 m/S 754 mmHg 56%
    14:00 +21°C° 0 mm 2 m/S 754 mmHg 59%
    15:00 +20°C° 0 mm 2 m/S 754 mmHg 62%
    16:00 +20°C° 0 mm 2 m/S 754 mmHg 65%
    17:00 +19°C° 0 mm 2 m/S 754 mmHg 68%
    18:00 +18°C° 0 mm 2 m/S 754 mmHg 71%
    19:00 +17°C° 0 mm 2 m/S 754 mmHg 74%
    20:00 +17°C° 0,4 mm 3 m/S 754 mmHg 79%
    21:00 +16°C° 0,4 mm 3 m/S 755 mmHg 84%
    22:00 +16°C° 0,4 mm 3 m/S 755 mmHg 89%
    23:00 +14°C° 0 mm 3 m/S 755 mmHg 91%

    22 Oktober, Sonntag

    Zeit Temperatur Niederschläge Wind Luftdruck Luftfeuchtigkeit
    00:00 +14°C° 0 mm 3 m/S 755 mmHg 92%
    01:00 +15°C° 0 mm 2 m/S 755 mmHg 94%
    02:00 +13°C° 0 mm 3 m/S 755 mmHg 93%
    03:00 +13°C° 0 mm 3 m/S 755 mmHg 92%
    04:00 +13°C° 0 mm 3 m/S 756 mmHg 91%
    05:00 +13°C° 0,3 mm 3 m/S 756 mmHg 90%
    06:00 +12°C° 0,3 mm 3 m/S 756 mmHg 90%
    07:00 +12°C° 0,3 mm 3 m/S 756 mmHg 90%
    08:00 +12°C° 0,2 mm 3 m/S 756 mmHg 87%
    09:00 +12°C° 0,2 mm 3 m/S 756 mmHg 85%
    10:00 +12°C° 0,2 mm 3 m/S 756 mmHg 83%
    11:00 +13°C° 0 mm 3 m/S 756 mmHg 79%
    12:00 +13°C° 0 mm 4 m/S 756 mmHg 76%
    13:00 +13°C° 0 mm 4 m/S 756 mmHg 73%
    14:00 +13°C° 0 mm 4 m/S 756 mmHg 74%
    15:00 +12°C° 0 mm 3 m/S 756 mmHg 74%
    16:00 +12°C° 0 mm 3 m/S 756 mmHg 75%
    17:00 +11°C° 0 mm 3 m/S 757 mmHg 76%
    18:00 +11°C° 0 mm 3 m/S 757 mmHg 78%
    19:00 +10°C° 0 mm 3 m/S 757 mmHg 79%
    20:00 +10°C° 0 mm 3 m/S 757 mmHg 80%
    21:00 +9°C° 0 mm 3 m/S 757 mmHg 80%
    22:00 +9°C° 0 mm 3 m/S 758 mmHg 81%
    23:00 +8°C° 0 mm 3 m/S 758 mmHg 81%
    Mehr zeigen